This is the latest recevied weather packets stored in our database for station/object OK1ZDJ-13. If no packets are shown the sender has not sent any weather packets the latest 10 day(s).
| Time | Temp. | Humidity | Pressure | Rain* | Wind** | Luminosity | Snow |
|---|---|---|---|---|---|---|---|
| 1777771072 | 5.56° C | 77% | 1019.6 hPa | - | - | - | - |
| 1777770472 | 6.11° C | 78% | 1019.6 hPa | - | - | - | - |
| 1777769872 | 6.11° C | 76% | 1019.6 hPa | - | - | - | - |
| 1777769272 | 6.11° C | 76% | 1019.6 hPa | - | - | - | - |
| 1777768672 | 6.11° C | 75% | 1019.6 hPa | - | - | - | - |
| 1777768072 | 6.11° C | 75% | 1019.7 hPa | - | - | - | - |
| 1777767472 | 6.67° C | 75% | 1019.7 hPa | - | - | - | - |
| 1777766872 | 6.67° C | 74% | 1019.7 hPa | - | - | - | - |
| 1777766272 | 7.22° C | 73% | 1019.8 hPa | - | - | - | - |
| 1777765672 | 7.22° C | 73% | 1020 hPa | - | - | - | - |
| 1777765072 | 7.22° C | 75% | 1020.1 hPa | - | - | - | - |
| 1777764472 | 7.22° C | 73% | 1020 hPa | - | - | - | - |
| 1777763872 | 7.22° C | 73% | 1020.1 hPa | - | - | - | - |
| 1777762672 | 7.78° C | 72% | 1020.1 hPa | - | - | - | - |
| 1777762072 | 7.78° C | 71% | 1020 hPa | - | - | - | - |
| 1777761472 | 7.78° C | 70% | 1020 hPa | - | - | - | - |
| 1777760272 | 8.33° C | 70% | 1020.1 hPa | - | - | - | - |
| 1777759672 | 8.33° C | 68% | 1020.1 hPa | - | - | - | - |
| 1777759072 | 8.89° C | 66% | 1020 hPa | - | - | - | - |
| 1777758472 | 8.89° C | 63% | 1020.1 hPa | - | - | - | - |
| 1777757876 | 9.44° C | 61% | 1019.9 hPa | - | - | - | - |
| 1777757270 | 10° C | 64% | 1019.9 hPa | - | - | - | - |
| 1777756670 | 10° C | 63% | 1019.9 hPa | - | - | - | - |
| 1777756070 | 10.56° C | 62% | 1020 hPa | - | - | - | - |
| 1777755470 | 10.56° C | 62% | 1019.9 hPa | - | - | - | - |
* Rain since midnight (hover to see other rain measurements)
** Current wind speed in m/s (hover to see current wind gust speed)